Wind_Speed
50 51 50 50 50 50 50 50 49 49 48 47 47 48 48 48 47 47 47 48 48 47 47 46 46 45 46 46 46 45 45 45 46 46 47 47 47 47
50 51 52 52 51 51 50 50 50 50 49 49 49 50 51 51 50 50 50 50 50 49 48 47 47 47 48 48 47 47 47 47 47 47 47 48 48 48
50 50 50 51 51 51 50 50 51 51 51 50 51 51 52 52 52 51 51 51 50 50 49 49 49 49 48 49 49 49 49 49 48 49 49 49 49 49
49 49 49 50 51 51 52 52 51 51 52 52 52 52 52 52 51 51 51 52 51 51 51 50 50 50 50 50 51 51 51 51 51 50 50 51 51 52
50 50 50 50 51 51 51 52 53 53 53 52 52 52 52 52 52 51 51 52 52 52 52 52 51 51 52 52 52 52 52 53 52 52 52 52 53 53
50 50 51 51 51 51 52 53 53 53 53 53 53 52 52 52 53 52 52 52 52 52 52 52 52 52 52 52 52 53 53 53 53 53 54 54 54 54
51 51 52 53 53 53 53 53 54 54 54 54 54 53 53 53 53 53 53 52 52 52 52 52 53 53 52 53 53 53 53 54 54 54 55 55 55 56
52 52 53 53 54 55 55 55 55 55 55 55 54 54 54 54 54 54 54 53 53 53 53 52 53 53 53 53 53 53 54 54 54 55 55 56 56 56
52 53 53 53 54 54 55 55 56 55 55 55 55 54 54 54 55 55 55 54 54 54 54 53 54 54 54 54 54 54 55 56 55 55 56 56 57 56
53 53 53 53 53 54 55 55 55 55 56 56 55 55 55 56 56 56 56 55 55 55 55 55 56 56 55 55 55 55 56 56 56 56 56 57 57 57
53 53 53 54 54 54 55 55 55 55 55 55 56 55 56 56 56 56 55 55 55 55 56 56 55 55 55 55 55 55 56 56 56 56 56 56 56 56
52 53 54 54 55 55 55 55 54 55 55 55 55 56 56 56 56 56 56 56 55 55 55 56 56 56 56 56 56 56 56 56 56 56 56 55 55 55
52 52 52 53 54 54 54 54 54 54 54 54 55 55 55 55 55 55 55 55 55 54 54 54 55 56 56 55 54 54 54 55 55 55 55 55 55 55
50 50 51 52 52 53 54 54 54 54 54 54 54 54 54 54 54 54 54 54 54 54 53 53 54 54 54 53 53 53 53 53 54 54 55 55 55 55
48 48 49 50 52 53 53 53 54 54 53 53 53 53 53 54 54 54 53 53 53 53 52 53 52 52 52 52 53 53 53 54 54 54 54 54 54 54
48 47 48 48 49 50 51 51 51 52 52 52 52 53 53 53 53 52 52 52 52 51 52 51 51 52 52 52 52 52 53 53 53 54 53 53 53 53
47 47 46 47 47 47 48 48 49 49 49 50 50 50 51 51 51 51 51 51 51 50 50 51 51 52 52 52 51 51 52 52 52 52 52 52 52 52
46 45 45 45 46 46 47 47 47 47 47 47 47 48 48 49 49 49 50 50 50 50 50 51 51 50 50 50 50 50 50 50 50 50 50 50 50 50
44 44 44 44 45 46 46 46 46 46 46 46 46 45 45 46 46 47 48 49 49 50 50 50 49 49 49 48 48 48 47 47 48 48 49 49 49 49
43 43 44 44 44 44 44 44 44 45 45 45 44 43 43 43 44 45 46 47 47 48 48 48 48 48 49 48 47 47 47 47 47 47 48 48 48 48
42 42 43 43 43 43 42 42 43 43 42 41 41 41 41 42 42 43 44 45 46 47 47 47 48 48 48 48 47 47 47 48 48 48 47 47 47 47
39 40 40 41 41 41 41 41 41 41 40 40 40 40 40 40 41 42 43 43 44 45 45 46 46 47 47 48 47 47 47 48 48 48 48 47 47 46
38 38 39 40 40 40 39 39 39 39 40 40 40 40 40 40 41 41 42 42 43 43 44 44 45 45 46 46 47 47 47 47 47 47 46 45 45 45
Wind_Direction
250 251 252 252 252 254 255 257 258 258 258 260 260 261 261 262 263 264 264 265 266 266 267 268 269 269 270 270 270 270 270 271 271 272 272 272 273 274
250 250 251 252 253 254 255 256 257 258 258 259 261 262 262 263 264 264 264 264 265 267 267 268 268 268 268 269 270 270 269 270 271 272 272 272 273 274
251 251 252 252 252 254 255 256 257 258 259 260 261 262 262 263 263 264 265 265 267 268 268 268 268 268 268 269 269 270 270 270 270 270 272 273 273 273
253 253 253 253 253 253 253 254 256 258 259 261 261 261 262 263 263 264 265 266 267 268 269 268 268 268 269 269 270 270 270 271 271 271 272 272 273 273
255 255 254 255 255 254 254 255 256 258 259 260 260 261 262 263 264 264 266 267 267 268 268 269 269 269 270 271 271 271 272 272 273 273 273 272 273 274
255 255 255 255 255 255 255 256 257 258 259 260 261 262 262 263 264 264 266 266 267 267 268 269 269 271 271 271 271 272 272 272 273 273 273 273 273 273
256 256 256 255 255 255 256 257 258 259 260 261 262 262 263 263 264 265 265 266 266 266 267 269 270 271 271 271 271 272 272 273 274 274 274 274 274 273
256 256 256 256 256 256 256 257 258 259 260 262 262 263 263 263 264 265 265 266 266 266 267 268 269 270 271 271 271 272 273 273 273 274 274 274 273 273
256 256 257 257 257 257 257 258 259 260 261 262 263 263 263 263 264 265 266 267 267 267 267 268 269 270 270 271 271 271 273 273 274 274 274 274 274 273
255 256 257 257 258 258 258 259 260 261 262 262 263 263 264 264 265 265 266 267 267 267 267 269 270 271 271 271 271 271 272 273 273 273 273 273 273 273
257 257 257 258 258 259 259 259 259 260 262 263 263 264 264 264 265 266 267 267 267 267 268 270 271 271 271 271 271 271 271 271 272 272 272 273 273 273
257 258 258 258 258 259 260 260 260 261 262 263 264 264 264 264 265 267 268 268 268 268 269 270 271 271 271 271 271 271 271 271 271 271 272 272 272 272
258 259 259 259 259 259 259 260 261 261 262 262 263 263 264 265 265 267 268 268 268 268 269 270 271 271 272 272 272 272 272 272 271 271 271 272 272 272
259 260 259 258 258 259 259 260 261 261 262 263 264 264 264 265 265 266 267 267 268 268 268 270 271 272 272 272 272 272 272 272 272 272 272 272 272 273
259 259 259 259 259 259 259 260 261 262 262 263 264 265 265 265 266 266 267 267 268 268 269 271 271 272 272 273 273 272 272 272 273 272 272 271 272 272
259 259 260 260 259 260 260 261 262 262 263 263 264 264 265 265 266 266 266 266 267 267 268 269 270 271 273 274 274 273 272 272 273 273 272 271 272 271
257 258 259 260 259 260 260 261 261 262 263 264 264 264 265 265 266 265 266 266 266 267 268 269 270 272 273 273 273 273 273 273 272 272 272 271 271 271
257 258 258 260 260 260 261 261 261 262 263 264 264 265 266 265 265 265 265 265 267 267 268 270 271 272 272 273 274 274 274 273 272 272 272 272 271 271
259 259 260 261 261 261 261 262 262 263 263 263 264 265 265 265 265 265 265 265 266 266 268 270 271 272 272 273 274 274 274 273 273 273 273 273 272 271
259 260 260 261 261 261 261 261 262 262 263 263 263 264 265 265 266 266 266 265 265 266 267 268 270 271 272 273 272 273 273 274 273 273 273 272 272 272
259 259 260 260 260 260 260 261 260 260 260 261 262 263 265 265 266 266 267 267 267 267 268 268 269 271 272 273 273 273 273 274 274 274 273 272 272 272
261 260 260 259 259 259 259 259 259 259 258 259 261 263 265 266 267 267 268 268 268 269 269 269 270 272 273 274 274 274 274 274 275 275 275 275 274 274
263 262 261 260 258 258 258 258 259 259 259 259 260 263 265 266 268 268 269 270 270 270 270 270 271 273 274 275 275 275 275 276 275 275 275 275 275 274
Height
5673 5676 5678 5680 5683 5685 5688 5690 5692 5694 5696 5697 5698 5699 5699 5700 5700 5701 5701 5702 5702 5702 5702 5703 5703 5703 5703 5704 5704 5704 5704 5704 5704 5704 5704 5704 5703 5703
5660 5662 5665 5667 5669 5672 5674 5676 5678 5680 5683 5685 5686 5686 5686 5687 5687 5688 5688 5689 5689 5689 5690 5690 5690 5690 5690 5691 5691 5691 5691 5691 5691 5691 5691 5691 5690 5690
5646 5649 5651 5654 5656 5658 5660 5663 5665 5667 5669 5672 5672 5673 5673 5673 5674 5674 5675 5675 5676 5676 5676 5676 5677 5677 5677 5677 5677 5678 5678 5678 5677 5677 5677 5677 5677 5676
5633 5635 5638 5640 5642 5645 5647 5649 5651 5653 5655 5657 5658 5659 5659 5659 5660 5660 5661 5661 5662 5663 5663 5663 5663 5663 5663 5663 5663 5664 5664 5664 5664 5663 5664 5664 5663 5662
5619 5622 5624 5626 5628 5630 5633 5635 5637 5639 5640 5642 5644 5644 5645 5645 5646 5647 5647 5647 5648 5649 5649 5649 5649 5649 5649 5649 5649 5649 5649 5649 5649 5649 5648 5648 5648 5647
5605 5607 5610 5613 5615 5617 5619 5621 5622 5624 5626 5627 5629 5630 5631 5631 5631 5632 5633 5634 5634 5634 5635 5635 5635 5635 5635 5635 5635 5635 5635 5634 5633 5633 5633 5632 5632 5632
5591 5593 5596 5598 5600 5602 5604 5606 5607 5609 5611 5612 5614 5615 5616 5616 5617 5618 5618 5619 5620 5620 5620 5621 5621 5621 5620 5620 5620 5619 5619 5619 5618 5618 5617 5617 5616 5616
5577 5579 5581 5583 5585 5586 5589 5590 5592 5594 5595 5597 5599 5600 5601 5601 5602 5602 5603 5604 5606 5607 5606 5606 5606 5606 5605 5605 5605 5604 5604 5603 5603 5602 5601 5600 5600 5599
5562 5564 5566 5568 5569 5571 5573 5575 5577 5578 5580 5582 5583 5584 5585 5586 5587 5588 5588 5588 5590 5590 5590 5591 5590 5590 5590 5589 5589 5588 5587 5587 5586 5585 5585 5584 5583 5582
5547 5549 5551 5553 5554 5556 5558 5559 5561 5563 5564 5566 5568 5569 5568 5569 5570 5571 5571 5572 5573 5574 5573 5574 5574 5574 5574 5573 5572 5572 5571 5570 5570 5569 5568 5567 5566 5566
5533 5534 5536 5538 5540 5540 5542 5545 5546 5547 5547 5549 5550 5551 5552 5553 5554 5554 5555 5556 5558 5558 5557 5557 5558 5557 5557 5556 5555 5554 5554 5553 5553 5552 5551 5551 5550 5549
5518 5520 5521 5523 5524 5524 5527 5529 5531 5532 5533 5534 5535 5535 5536 5537 5537 5538 5539 5539 5540 5542 5542 5541 5540 5539 5540 5540 5538 5537 5537 5536 5536 5535 5535 5534 5534 5533
5502 5504 5506 5507 5508 5509 5511 5513 5515 5516 5517 5518 5519 5520 5521 5522 5522 5523 5523 5523 5524 5525 5525 5524 5524 5523 5522 5523 5523 5521 5520 5519 5519 5519 5518 5518 5517 5516
5488 5489 5490 5491 5492 5494 5496 5498 5499 5500 5501 5502 5504 5505 5506 5507 5507 5507 5507 5507 5508 5508 5508 5508 5508 5507 5506 5506 5507 5506 5504 5503 5503 5502 5502 5502 5501 5500
5472 5474 5475 5476 5477 5478 5480 5482 5483 5484 5486 5487 5489 5490 5490 5490 5490 5491 5491 5491 5492 5492 5492 5492 5492 5491 5491 5491 5491 5490 5489 5488 5487 5486 5486 5485 5485 5485
5457 5459 5460 5460 5462 5463 5465 5466 5468 5469 5470 5472 5473 5474 5474 5474 5475 5475 5475 5476 5477 5477 5477 5477 5477 5476 5476 5475 5475 5475 5474 5473 5472 5470 5470 5469 5469 5469
5443 5444 5446 5447 5448 5449 5450 5452 5453 5454 5455 5457 5457 5458 5459 5459 5459 5459 5460 5461 5462 5463 5463 5462 5462 5461 5461 5460 5459 5459 5458 5457 5456 5455 5454 5454 5454 5454
5429 5431 5432 5433 5435 5436 5437 5438 5439 5440 5441 5442 5443 5443 5444 5444 5445 5445 5446 5446 5447 5447 5448 5447 5447 5446 5446 5445 5444 5443 5443 5442 5441 5440 5439 5439 5440 5439
5416 5418 5419 5420 5421 5422 5423 5424 5425 5426 5427 5428 5429 5429 5430 5430 5430 5431 5431 5432 5432 5433 5433 5432 5432 5431 5431 5431 5430 5428 5427 5427 5426 5425 5425 5425 5425 5424
5404 5405 5406 5407 5408 5409 5410 5411 5412 5412 5413 5414 5415 5416 5416 5417 5417 5417 5417 5418 5418 5418 5418 5418 5418 5417 5417 5417 5416 5415 5412 5412 5412 5411 5410 5410 5410 5409
5391 5392 5392 5393 5394 5395 5396 5397 5398 5399 5400 5401 5402 5403 5404 5404 5404 5404 5404 5404 5404 5404 5405 5405 5404 5403 5402 5402 5402 5401 5399 5397 5397 5397 5396 5396 5396 5395
5378 5379 5379 5380 5381 5382 5383 5384 5385 5387 5388 5389 5390 5391 5391 5392 5392 5392 5392 5391 5391 5391 5391 5391 5390 5389 5388 5388 5387 5386 5385 5384 5382 5381 5381 5381 5380 5381
5366 5367 5367 5368 5369 5370 5371 5372 5373 5374 5376 5377 5378 5379 5379 5379 5380 5379 5379 5379 5378 5378 5378 5377 5377 5376 5375 5374 5373 5372 5371 5369 5368 5367 5367 5366 5365 5365